Flag for U.S.A. Weather past 2 weeks in Jacksonville, North Carolina, U.S.A.

Now
85 °F

Passing clouds.


Feels Like: 93 °F
Forecast: 72 / 90 °F
Wind: 12 mph from Southeast

Location: Jacksonville - New River

Current Time: Jul 30, 2015 at 7:38:26 PM

Latest Report: Jul 30, 2015 at 6:56 PM


Visibility: 10 mi

Pressure: 29.87 "Hg

Humidity: 72%

Dew point: 75 °F

Location of JacksonvilleLocation

Historic Weather in Jacksonville — Graph

°F

Jacksonville temperature yesterday

Maximum temperature yesterday: 90 °F (at 3:56 PM)
Minimum temperature yesterday: 75 °F (at 6:56 AM)
Average temperature yesterday: 82 °F

Past Weeks' High & Low Weather Summary

 TemperatureHumidityPressure
High95 °F (Jul 21, 2:56 PM)97% (Jul 18, 6:56 AM)30.07 "Hg (Jul 18, 6:56 AM)
Low66 °F (Jul 25, 4:56 AM)37% (Jul 25, 4:56 PM)29.70 "Hg (Jul 21, 4:56 PM)
Average81 °F75%29.93 "Hg
* Reported Jul 15 5:56 PM — Jul 30 5:56 PM, Jacksonville, Weather by CustomWeather, © 2015

Note: Actual official high and low records may vary slightly from our data, if they occured in-between our weather recording intervals... More about our weather records

Advertising

Jacksonville weather history for previous 24 hours

 ConditionsComfort  
Time TempWeatherWind HumidityBarometerVisibility
5:56 PM
Thu, Jul 30
87 °FScattered clouds.10 mph65%29.87 "Hg10 mi
4:56 PM89 °FSunny.9 mph61%29.87 "Hg10 mi
3:56 PM89 °FSunny.6 mph59%29.89 "Hg10 mi
2:56 PM89 °FSunny.8 mph65%29.90 "Hg10 mi
1:56 PM87 °FSunny.6 mph65%29.93 "Hg10 mi
1:04 PM84 °FScattered clouds.9 mph74%29.94 "Hg10 mi
11:56 AM89 °FScattered clouds.3 mph61%29.95 "Hg10 mi
10:56 AM86 °FScattered clouds.No wind72%29.96 "Hg10 mi
9:56 AM83 °FSunny.6 mph77%29.95 "Hg10 mi
8:56 AM79 °FPartly sunny.5 mph84%29.96 "Hg10 mi
8:04 AM74 °FFog.3 mph97%29.94 "Hg1 mi
6:58 AM73 °FFog.3 mph97%29.93 "Hg1 mi
5:56 AM73 °FClear.No wind90%29.93 "Hg10 mi
4:56 AM73 °FClear.5 mph90%29.93 "Hg10 mi
3:56 AM74 °FClear.3 mph91%29.94 "Hg10 mi
2:56 AM74 °FClear.3 mph91%29.95 "Hg10 mi
1:56 AM76 °FClear.7 mph85%29.96 "Hg10 mi
12:56 AM77 °FPassing clouds.5 mph85%29.97 "Hg10 mi
11:56 PM
Wed, Jul 29
77 °FClear.6 mph82%29.98 "Hg10 mi
10:56 PM80 °FClear.8 mph74%29.98 "Hg10 mi
9:56 PM80 °FClear.8 mph71%29.98 "Hg10 mi
8:56 PM82 °FPassing clouds.9 mph67%29.96 "Hg10 mi
7:56 PM84 °FSunny.10 mph65%29.95 "Hg10 mi
Weather by CustomWeather, © 2015

See weather overviewHow to use our weather pages